Location: Emblem
(62.4273°N, 6.4710°E)
Time: 00:05:52
(UTC+02:00)

UWE-3 - Pass Details

Date: 28 March 2023
Orbit: 577 x 669 km, 97.7° (Epoch: 06 June)

Event Time Altitude Azimuth Distance (km) Brightness Sun altitude
Rises 03:48:28 0° 19° (NNE) 3,027 ? -20.3°
Reaches altitude 10° 03:51:00 10° 31° (NNE) 2,099 ? -20.1°
Maximum altitude 03:54:59 28° 91° (E) 1,227 ? -19.9°
Enters shadow 03:58:30 12° 149° (SSE) 1,929 ? -19.6°
